CW7549 Weather Reports


time (UTC)temp
F
wind
direction
speed
knots
gust
knots
rain 1hr
in
rain 24hr
in
rain mn
in
humidity
%
barometer
mb
20260507163234 57 132 1.7 4.3 0.00 0.00 0.00 66 1010.7
20260507162235 56 150 0.9 5.2 0.00 0.00 0.00 68 1010.7
20260507161233 56 125 0.9 4.3 0.00 0.00 0.00 69 1010.8
20260507160241 56 140 1.7 4.3 0.00 0.00 0.00 69 1011.0
20260507155240 55 88 1.7 3.5 0.00 0.00 0.00 72 1011.0
20260507154233 55 80 0.9 4.3 0.00 0.00 0.00 73 1011.0
20260507153233 55 122 0.0 2.6 0.00 0.00 0.00 74 1011.1
20260507152245 55 134 0.0 3.5 0.00 0.00 0.00 76 1011.1
20260507151256 55 137 0.0 0.9 0.00 0.00 0.00 76 1011.1
20260507150247 55 137 1.7 4.3 0.00 0.00 0.00 75 1011.2
20260507145244 55 137 0.0 4.3 0.00 0.00 0.00 74 1011.2
20260507144244 55 138 1.7 4.3 0.00 0.00 0.00 73 1011.5
20260507143236 55 97 0.9 5.2 0.00 0.00 0.00 72 1011.6
20260507142236 55 157 0.9 4.3 0.00 0.00 0.00 73 1011.6
20260507141235 55 196 0.9 4.3 0.00 0.00 0.00 71 1011.7
20260507140244 55 136 1.7 5.2 0.00 0.00 0.00 72 1011.8
20260507135245 56 134 1.7 6.1 0.00 0.00 0.00 72 1011.8
20260507134243 56 171 1.7 6.1 0.00 0.00 0.00 73 1011.7
20260507133257 57 100 4.3 8.7 0.00 0.00 0.00 72 1011.8
20260507132247 57 148 1.7 7.8 0.00 0.00 0.00 73 1011.8
20260507131239 57 93 2.6 4.3 0.00 0.00 0.00 73 1012.0
20260507130244 56 170 1.7 5.2 0.00 0.00 0.00 73 1011.9
20260507125311 56 117 0.9 4.3 0.00 0.00 0.00 73 1011.9
20260507124245 56 152 1.7 4.3 0.00 0.00 0.00 72 1012.0
20260507123238 56 128 1.7 5.2 0.00 0.00 0.00 74 1012.1
20260507122257 55 163 0.9 5.2 0.00 0.00 0.00 75 1012.1
20260507121246 55 155 2.6 3.5 0.00 0.00 0.00 75 1012.1
20260507120244 55 155 0.9 4.3 0.00 0.00 0.00 76 1012.2
20260507115245 55 170 0.9 5.2 0.00 0.00 0.00 76 1012.2
20260507114258 55 113 0.9 3.5 0.00 0.00 0.00 76 1012.2
20260507113238 55 112 1.7 6.1 0.00 0.00 0.00 75 1012.2
20260507112236 55 117 1.7 5.2 0.00 0.00 0.00 75 1012.2
20260507111239 55 159 0.9 5.2 0.00 0.00 0.00 74 1012.2
20260507110251 56 165 0.0 3.5 0.00 0.00 0.00 76 1012.2
20260507105243 55 119 2.6 6.1 0.00 0.00 0.00 78 1012.2
20260507104229 55 151 1.7 6.1 0.00 0.00 0.00 78 1012.3
20260507103246 55 134 0.0 3.5 0.00 0.00 0.00 82 1012.3
20260507102237 54 150 1.7 5.2 0.00 0.00 0.00 84 1012.3
20260507101304 53 134 0.9 4.3 0.00 0.00 0.00 87 1012.3
20260507100259 52 135 0.9 3.5 0.00 0.00 0.00 88 1012.2
20260507095237 52 138 1.7 4.3 0.00 0.00 0.00 89 1012.2
20260507093309 51 146 2.6 3.5 0.00 0.00 0.00 89 1012.2
20260507092248 51 147 0.9 5.2 0.00 0.00 0.00 90 1012.2
20260507091300 51 150 0.9 4.3 0.00 0.00 0.00 91 1012.2
20260507090237 51 155 1.7 5.2 0.00 0.00 0.00 91 1012.2
20260507085236 51 162 1.7 3.5 0.00 0.00 0.00 92 1012.2
20260507084248 51 163 2.6 5.2 0.00 0.00 0.00 92 1012.1
20260507083250 50 163 2.6 4.3 0.00 0.00 0.00 92 1012.2
20260507082244 50 165 0.0 4.3 0.00 0.00 0.00 92 1012.2
20260507081232 50 167 0.9 2.6 0.00 0.00 0.00 92 1012.2
20260507080303 50 168 0.0 1.7 0.00 0.00 0.00 92 1012.2
20260507075309 49 167 0.0 0.9 0.00 0.00 0.00 92 1012.2
20260507074238 49 167 0.0 0.9 0.00 0.00 0.00 92 1012.1
20260507073249 49 167 0.0 0.9 0.00 0.00 0.00 92 1012.1
20260507072241 48 167 0.0 0.0 0.00 0.00 0.00 92 1012.1
20260507071239 48 167 0.0 0.0 0.00 0.00 0.00 92 1011.8
20260507070258 48 167 0.0 0.0 0.00 0.00 0.00 92 1011.8
20260507065250 48 167 0.9 2.6 0.00 0.00 0.00 91 1011.8
20260507064241 48 168 0.0 0.0 0.00 0.00 0.00 92 1011.7
20260507063234 47 167 0.0 0.9 0.00 0.00 0.00 91 1011.6
20260507062246 47 167 0.9 1.7 0.00 0.00 0.00 91 1011.6
20260507061236 46 167 0.0 0.9 0.00 0.00 0.00 91 1011.6
20260507060232 46 167 0.0 0.0 0.00 0.00 0.00 91 1011.5
20260507055250 46 167 0.0 0.0 0.00 0.00 0.00 91 1011.5
20260507054234 46 167 0.0 0.0 0.00 0.00 0.00 91 1011.5
20260507053243 46 167 0.0 1.7 0.00 0.00 0.00 91 1011.4
20260507052257 45 167 0.0 2.6 0.00 0.00 0.00 91 1011.4
20260507051246 45 167 0.9 1.7 0.00 0.00 0.00 90 1011.4
20260507050246 44 167 0.0 0.0 0.00 0.00 0.00 90 1011.3
20260507045257 44 167 0.0 0.0 0.00 0.00 0.00 90 1011.3
20260507044250 44 168 0.0 0.0 0.00 0.00 0.00 90 1011.3
20260507043302 43 168 0.0 0.0 0.00 0.00 0.00 90 1011.3
20260507042240 43 168 0.0 0.9 0.00 0.00 0.00 90 1011.3
20260507041232 43 168 0.0 0.0 0.00 0.00 0.00 89 1011.3
20260507040307 43 168 0.0 0.0 0.00 0.00 0.00 89 1011.2
20260507035242 43 168 0.0 0.0 0.00 0.00 0.00 89 1011.2
20260507034239 43 168 0.0 1.7 0.00 0.00 0.00 89 1011.2
20260507033239 43 168 0.0 1.7 0.00 0.00 0.00 88 1011.2
20260507032237 43 168 0.0 0.0 0.00 0.00 0.00 89 1011.2
20260507031300 43 168 0.0 0.0 0.00 0.00 0.00 89 1011.2
20260507030246 43 168 0.0 0.0 0.00 0.00 0.00 88 1011.2
20260507025238 43 168 0.0 0.0 0.00 0.00 0.00 89 1011.2
20260507024240 44 168 0.0 0.0 0.00 0.00 0.00 89 1011.1
20260507023253 44 168 0.0 0.0 0.00 0.00 0.00 88 1011.1
20260507022232 44 168 0.0 0.0 0.00 0.00 0.00 88 1011.1
20260507021240 44 168 0.0 0.0 0.00 0.00 0.00 88 1011.1
20260507020251 44 168 0.0 0.0 0.00 0.00 0.00 88 1011.1
20260507015238 44 168 0.0 0.0 0.00 0.00 0.00 89 1011.1
20260507014241 45 168 0.0 0.0 0.00 0.00 0.00 89 1011.1
20260507013243 44 168 0.0 0.0 0.00 0.00 0.00 89 1011.1
20260507012233 44 168 0.0 1.7 0.00 0.00 0.00 88 1011.1
20260507011246 45 168 0.0 0.0 0.00 0.00 0.00 88 1011.1
20260507010301 45 168 0.0 0.0 0.00 0.00 0.00 88 1011.2
20260507005254 45 168 0.0 0.0 0.00 0.00 0.00 88 1011.2
20260507004233 45 168 0.0 0.0 0.00 0.00 0.00 88 1011.2
20260507003232 45 168 0.0 0.0 0.00 0.00 0.00 88 1011.2
20260507002244 45 168 0.0 0.0 0.00 0.00 0.00 88 1011.2
20260507001237 45 168 0.0 0.0 0.00 0.00 0.00 87 1011.4
20260507000229 45 168 0.0 0.0 0.00 0.00 0.00 87 1011.5
20260506235307 45 168 0.0 0.0 0.00 0.00 0.00 87 1011.5
20260506234235 45 168 0.0 0.0 0.00 0.00 0.00 87 1011.5
20260506233233 45 168 0.0 0.0 0.00 0.00 0.00 87 1011.3
20260506232234 45 168 0.0 0.0 0.00 0.00 0.00 87 1011.3
20260506231235 46 168 0.0 0.0 0.00 0.00 0.00 87 1011.4
20260506230252 46 168 0.0 0.0 0.00 0.00 0.00 87 1011.5
20260506225305 46 168 0.0 0.0 0.00 0.00 0.00 87 1011.5
20260506224248 46 168 0.0 0.0 0.00 0.00 0.00 87 1011.5
20260506223235 46 168 0.0 0.0 0.00 0.00 0.00 86 1011.5
20260506222232 46 168 0.0 0.0 0.00 0.00 0.00 86 1011.5
20260506221249 46 168 0.0 0.0 0.00 0.00 0.00 86 1011.5
20260506220244 47 168 0.0 0.0 0.00 0.00 0.00 86 1011.4
20260506215237 47 168 0.0 0.0 0.00 0.00 0.00 86 1011.4
20260506214235 47 168 0.0 0.0 0.00 0.00 0.00 85 1011.4
20260506213235 47 168 0.0 0.0 0.00 0.00 0.00 85 1011.4
20260506212310 48 168 0.0 0.0 0.00 0.00 0.00 85 1011.4
20260506211241 48 168 0.0 0.0 0.00 0.00 0.00 85 1011.4
20260506210233 48 168 0.0 0.0 0.00 0.00 0.00 85 1011.4
20260506205242 49 168 0.0 0.0 0.00 0.00 0.00 84 1011.4
20260506204233 49 168 0.0 0.0 0.00 0.00 0.00 84 1011.3
20260506203234 50 168 0.0 0.0 0.00 0.00 0.00 84 1011.2
20260506202312 50 168 0.0 0.0 0.00 0.00 0.00 85 1011.2
20260506201245 50 168 0.0 0.0 0.00 0.00 0.00 85 1011.1